{"data":{"norad_id":62915,"intl_designator":"2025-027J","name":"STARLINK-11555 [DTC]","alt_names":[],"object_type":"PAYLOAD","status":"ACTIVE","operator":null,"country":"US","launch_date":"2025-02-08","launch_site_code":"AFETR","launch_vehicle":null,"mission":null,"orbit_class":"UNKNOWN","rcs_meters":null,"size_class":null,"mass_kg":null,"dimensions":null,"purposes":["comms"],"wikipedia_slug":null,"has_3d_model":false,"image_url":null,"decayed_at":null,"tle_current":{"epoch":"2026-09-21T08:44:27.304224Z","epoch_age_seconds":93616,"freshness":"FRESH","line1":"1 62915U 25027J   26264.36420491  .00075013  00000+0  58078-3 0  9994","line2":"2 62915  42.9993 248.4704 0002942 259.8710 100.1826 15.70920520 93965","mean_motion":15.7092052,"eccentricity":0.0002942,"inclination_deg":42.9993,"raan_deg":248.4704,"arg_perigee_deg":259.871,"mean_anomaly_deg":100.1826,"bstar":0.00058078,"rev_number":9396,"period_min":91.665999754081,"perigee_km":354.2836691214,"apogee_km":358.24619121711,"semimajor_km":6734.4019301693,"source":"CELESTRAK","updated_at":"2026-09-22T09:00:49.708092Z"}}}